EW6140 Weather Reports


time (UTC)temp
C
wind
direction
speed
KPH
gust
KPH
rain 1hr
cm
rain 24hr
cm
rain mn
cm
humidity
%
barometer
mb
20260503211559 10 0 0.0 9.7 0.00 0.00 0.00 49 1009.9
20260503211059 10 245 0.0 1.6 0.00 0.00 0.00 48 1009.9
20260503210559 10 0 0.0 1.6 0.00 0.00 0.00 50 1009.9
20260503210100 10 0 0.0 1.6 0.00 0.00 0.00 49 1009.9
20260503205600 10 0 0.0 4.8 0.00 0.00 0.00 49 1010.0
20260503205058 10 0 0.0 6.4 0.00 0.00 0.00 49 1009.9
20260503204558 9 0 0.0 11.3 0.00 0.00 0.00 50 1009.9
20260503204058 9 0 0.0 11.3 0.00 0.00 0.00 49 1010.0
20260503203558 9 0 0.0 9.7 0.00 0.00 0.00 48 1010.1
20260503203100 9 0 0.0 8.0 0.00 0.00 0.00 49 1010.1
20260503202558 8 321 1.6 8.0 0.00 0.00 0.00 51 1010.1
20260503202059 8 0 0.0 9.7 0.00 0.00 0.00 49 1010.2
20260503201559 9 0 0.0 9.7 0.00 0.00 0.00 48 1010.2
20260503201103 9 252 0.0 9.7 0.00 0.00 0.00 47 1010.2
20260503200558 8 0 0.0 9.7 0.00 0.00 0.00 47 1010.2
20260503200058 9 0 0.0 8.0 0.00 0.00 0.00 47 1010.2
20260503195603 9 0 0.0 6.4 0.00 0.00 0.00 46 1010.3
20260503195100 9 272 0.0 6.4 0.00 0.00 0.00 46 1010.3
20260503194601 9 0 1.6 6.4 0.00 0.00 0.00 43 1010.2
20260503194059 10 0 0.0 8.0 0.00 0.00 0.00 42 1010.4
20260503193559 10 0 0.0 8.0 0.00 0.00 0.00 44 1010.4
20260503193058 10 0 0.0 8.0 0.00 0.00 0.00 42 1010.3
20260503192558 10 0 0.0 8.0 0.00 0.00 0.00 45 1010.5
20260503192058 10 340 0.0 8.0 0.00 0.00 0.00 43 1010.4
20260503191600 10 0 0.0 8.0 0.00 0.00 0.00 41 1010.6
20260503191103 9 242 0.0 8.0 0.00 0.00 0.00 41 1010.6
20260503190559 10 0 0.0 6.4 0.00 0.00 0.00 43 1010.6
20260503190056 10 0 0.0 11.3 0.00 0.00 0.00 41 1010.6
20260503185558 10 0 0.0 11.3 0.00 0.00 0.00 39 1010.7
20260503185101 10 0 0.0 16.1 0.00 0.00 0.00 39 1010.8
20260503184558 10 0 0.0 16.1 0.00 0.00 0.00 39 1010.9
20260503184058 10 352 0.0 14.5 0.00 0.00 0.00 37 1010.8
20260503183559 10 277 0.0 16.1 0.00 0.00 0.00 40 1010.8
20260503183057 10 0 0.0 16.1 0.00 0.00 0.00 39 1010.8
20260503182556 10 0 1.6 12.9 0.00 0.00 0.00 39 1011.0
20260503182057 10 0 0.0 12.9 0.00 0.00 0.00 40 1011.0
20260503181557 10 0 0.0 9.7 0.00 0.00 0.00 38 1011.0
20260503181059 10 0 0.0 11.3 0.00 0.00 0.00 40 1011.2
20260503180559 10 9 0.0 11.3 0.00 0.00 0.00 39 1011.2
20260503180105 10 0 1.6 11.3 0.00 0.00 0.00 39 1011.1
20260503175558 10 0 1.6 11.3 0.00 0.00 0.00 41 1011.3
20260503175058 9 0 0.0 8.0 0.00 0.00 0.00 43 1011.3
20260503174601 9 319 0.0 12.9 0.00 0.00 0.00 39 1011.3
20260503174058 8 0 0.0 12.9 0.00 0.00 0.00 42 1011.4
20260503173559 8 0 0.0 11.3 0.00 0.00 0.00 39 1011.5
20260503173112 9 0 0.0 11.3 0.00 0.00 0.00 40 1011.5
20260503172558 9 0 0.0 1.6 0.00 0.00 0.00 40 1011.6
20260503172058 8 0 0.0 12.9 0.00 0.00 0.00 44 1011.6
20260503171602 8 0 0.0 12.9 0.00 0.00 0.00 41 1011.5
20260503171100 8 0 0.0 0.0 0.00 0.00 0.00 43 1011.6
20260503170559 8 0 0.0 9.7 0.00 0.00 0.00 43 1011.7
20260503170106 8 0 0.0 17.7 0.00 0.00 0.00 43 1011.7
20260503150558 7 0 0.0 6.4 0.00 0.00 0.00 54 1012.5
20260503140107 4 0 0.0 1.6 0.00 0.00 0.00 63 1012.7
20260503131058 3 28 0.0 8.0 0.00 0.00 0.00 67 1012.8
20260503130601 3 0 0.0 6.4 0.00 0.00 0.00 67 1012.8
20260503110557 -17 0.0 0.0 0.00 0.00 0.00 1012.4
20260503110110 -17 0.0 0.0 0.00 0.00 0.00 1012.4
20260503081559 -17 0.0 0.0 0.00 0.00 0.00 1012.0
20260503081059 -17 0.0 0.0 0.00 0.00 0.00 1012.1
20260503080559 -17 0.0 0.0 0.00 0.00 0.00 1012.1
20260503072601 -17 0.0 0.0 0.00 0.00 0.00 1011.9
20260503072058 -17 0.0 0.0 0.00 0.00 0.00 1012.1
20260503071614 -17 0.0 0.0 0.00 0.00 0.00 1012.0
20260503071058 -17 0.0 0.0 0.00 0.00 0.00 1012.0
20260503070601 -17 0.0 0.0 0.00 0.00 0.00 1012.1
20260503060115 -17 0.0 0.0 0.00 0.00 0.00 1012.3
20260503055057 -17 0.0 0.0 0.00 0.00 0.00 1012.4
20260503054602 -17 0.0 0.0 0.00 0.00 0.00 1012.5
20260503054058 -17 0.0 0.0 0.00 0.00 0.00 1012.6
20260503053558 -17 0.0 0.0 0.00 0.00 0.00 1012.6
20260503053057 -17 0.0 0.0 0.00 0.00 0.00 1012.7
20260503052558 -17 0.0 0.0 0.00 0.00 0.00 1012.7
20260503052058 -17 0.0 0.0 0.00 0.00 0.00 1012.9
20260503051600 -17 0.0 0.0 0.00 0.00 0.00 1012.9
20260503051101 -17 0.0 0.0 0.00 0.00 0.00 1013.0
20260503050600 -17 0.0 0.0 0.00 0.00 0.00 1013.0
20260503050057 -17 0.0 0.0 0.00 0.00 0.00 1013.0
20260503045558 -17 0.0 0.0 0.00 0.00 0.00 1013.1
20260503045056 -17 0.0 0.0 0.00 0.00 0.00 1013.1
20260503044557 -17 0.0 0.0 0.00 0.00 0.00 1012.9
20260503044058 -17 0.0 0.0 0.00 0.00 0.00 1013.0
20260503043554 -17 0.0 0.0 0.00 0.00 0.00 1013.1
20260503043056 -17 0.0 0.0 0.00 0.00 0.00 1013.1
20260503042557 -17 0.0 0.0 0.00 0.00 0.00 1013.2
20260503042059 -17 0.0 0.0 0.00 0.00 0.00 1013.2
20260503041556 -17 0.0 0.0 0.00 0.00 0.00 1013.2
20260503041058 -17 0.0 0.0 0.00 0.00 0.00 1013.3
20260503040554 -17 0.0 0.0 0.00 0.00 0.00 1013.3
20260503040113 -17 0.0 0.0 0.00 0.00 0.00 1013.3
20260503035558 -17 0.0 0.0 0.00 0.00 0.00 1013.4
20260503035056 -17 0.0 0.0 0.00 0.00 0.00 1013.4
20260503034556 -17 0.0 0.0 0.00 0.00 0.00 1013.4
20260503034056 -17 0.0 0.0 0.00 0.00 0.00 1013.5
20260503033555 -17 0.0 0.0 0.00 0.00 0.00 1013.5
20260503033057 -17 0.0 0.0 0.00 0.00 0.00 1013.5
20260503032556 -17 0.0 0.0 0.00 0.00 0.00 1013.5
20260503032055 -17 0.0 0.0 0.00 0.00 0.00 1013.5
20260503031605 -17 0.0 0.0 0.00 0.00 0.00 1013.5
20260503031055 -17 0.0 0.0 0.00 0.00 0.00 1013.5
20260503030556 -17 0.0 0.0 0.00 0.00 0.00 1013.4
20260503030054 -17 0.0 0.0 0.00 0.00 0.00 1013.4
20260503025556 -17 0.0 0.0 0.00 0.00 0.00 1013.4
20260503025054 -17 0.0 0.0 0.00 0.00 0.00 1013.6
20260503024554 -17 0.0 0.0 0.00 0.00 0.00 1013.4
20260503024057 -17 0.0 0.0 0.00 0.00 0.00 1013.5
20260503023554 -17 0.0 0.0 0.00 0.00 0.00 1013.6
20260503023100 -17 0.0 0.0 0.00 0.00 0.00 1013.6
20260503022558 -17 0.0 0.0 0.00 0.00 0.00 1013.6
20260503022101 -17 0.0 0.0 0.00 0.00 0.00 1013.6
20260503021600 -17 0.0 0.0 0.00 0.00 0.00 1013.6
20260503021058 -17 0.0 0.0 0.00 0.00 0.00 1013.5
20260503020555 -17 0.0 0.0 0.00 0.00 0.00 1013.6
20260503020056 -17 0.0 0.0 0.00 0.00 0.00 1013.6
20260503015555 -17 0.0 0.0 0.00 0.00 0.00 1013.7
20260503015058 -17 0.0 0.0 0.00 0.00 0.00 1013.6
20260503014609 -17 0.0 0.0 0.00 0.00 0.00 1013.7
20260503014054 -17 0.0 0.0 0.00 0.00 0.00 1013.6
20260503013557 -17 0.0 0.0 0.00 0.00 0.00 1013.6
20260503013058 -17 0.0 0.0 0.00 0.00 0.00 1013.6
20260503012555 -17 0.0 0.0 0.00 0.00 0.00 1013.7
20260503012058 -17 0.0 0.0 0.00 0.00 0.00 1013.7
20260503011600 -17 0.0 0.0 0.00 0.00 0.00 1013.6
20260503011054 -17 0.0 0.0 0.00 0.00 0.00 1013.6
20260503010554 -17 0.0 0.0 0.00 0.00 0.00 1013.7
20260503010057 -17 0.0 0.0 0.00 0.00 0.00 1013.7
20260503005557 -17 0.0 0.0 0.00 0.00 0.00 1013.6
20260503005059 -17 0.0 0.0 0.00 0.00 0.00 1013.6
20260503004616 -17 0.0 0.0 0.00 0.00 0.00 1013.5
20260503004059 -17 0.0 0.0 0.00 0.00 0.00 1013.5
20260503003554 -17 0.0 0.0 0.00 0.00 0.00 1013.5
20260503003056 -17 0.0 0.0 0.00 0.00 0.00 1013.4
20260503002555 -17 0.0 0.0 0.00 0.00 0.00 1013.4
20260503002055 -17 0.0 0.0 0.00 0.00 0.00 1013.5
20260503001607 -17 0.0 0.0 0.00 0.00 0.00 1013.4
20260503001056 -17 0.0 0.0 0.00 0.00 0.00 1013.4
20260503000559 -17 0.0 0.0 0.00 0.00 0.00 1013.2
20260503000057 -17 0.0 0.0 0.00 0.00 0.00 1013.3
20260502235554 -17 0.0 0.0 0.00 0.00 0.00 1013.3
20260502235054 -17 0.0 0.0 0.00 0.00 0.00 1013.2
20260502234556 -17 0.0 0.0 0.00 0.00 0.00 1013.2
20260502234056 -17 0.0 0.0 0.00 0.00 0.00 1013.1
20260502233557 3 0.0 4.8 0.00 0.00 0.00 67 1013.2
20260502233055 3 0 0.0 4.8 0.00 0.00 0.00 67 1013.2
20260502232559 3 0 0.0 0.0 0.00 0.00 0.00 67 1013.1
20260502232058 4 0 0.0 1.6 0.00 0.00 0.00 67 1013.1
20260502231559 4 0 0.0 1.6 0.00 0.00 0.00 66 1013.0
20260502231058 4 0 0.0 1.6 0.00 0.00 0.00 66 1013.0
20260502230557 4 0 0.0 0.0 0.00 0.00 0.00 65 1013.0
20260502230056 4 0 0.0 0.0 0.00 0.00 0.00 66 1013.0
20260502225557 4 0 0.0 1.6 0.00 0.00 0.00 66 1013.0
20260502225054 4 0 0.0 1.6 0.00 0.00 0.00 66 1013.1
20260502224554 4 0 0.0 0.0 0.00 0.00 0.00 67 1013.0
20260502224054 4 0 0.0 0.0 0.00 0.00 0.00 65 1013.1
20260502223555 4 0 0.0 0.0 0.00 0.00 0.00 65 1013.0
20260502223057 5 0 0.0 0.0 0.00 0.00 0.00 66 1013.1
20260502222556 5 0 0.0 1.6 0.00 0.00 0.00 66 1013.1
20260502222058 5 0 0.0 1.6 0.00 0.00 0.00 67 1013.0
20260502221600 5 0 0.0 0.0 0.00 0.00 0.00 67 1012.9
20260502221058 5 0 0.0 0.0 0.00 0.00 0.00 65 1013.0
20260502220600 5 0 0.0 0.0 0.00 0.00 0.00 67 1012.9
20260502220059 5 0 0.0 1.6 0.00 0.00 0.00 65 1013.0
20260502215559 5 0 0.0 1.6 0.00 0.00 0.00 65 1012.9
20260502215058 5 0 0.0 0.0 0.00 0.00 0.00 66 1012.9
20260502214558 5 0 0.0 0.0 0.00 0.00 0.00 66 1012.9
20260502214059 5 0 0.0 3.2 0.00 0.00 0.00 67 1012.9
20260502213559 5 0 0.0 4.8 0.00 0.00 0.00 65 1012.9
20260502213100 5 0 0.0 4.8 0.00 0.00 0.00 65 1012.8
20260502212600 5 0 1.6 4.8 0.00 0.00 0.00 65 1012.9
20260502212101 5 0 0.0 3.2 0.00 0.00 0.00 65 1012.9